Overview Statistics Trail Chart Weather Telemetry Raw packets
 

This is the latest recevied weather packets stored in our database for station/object N1ORT. If no packets are shown the sender has not sent any weather packets the latest 10 day(s).

<< 32 33 34 35 36 37 38 >>
Time Temp. Humidity Pressure Rain* Wind** Luminosity Snow
1788395142 17.78° C 99% 1018.9 hPa 0 mm - 0 W/m² -
1788394837 17.78° C 99% 1018.7 hPa 0 mm - 0 W/m² -
1788394531 17.78° C 99% 1018.8 hPa 0 mm - 0 W/m² -
1788394225 17.22° C 98% 1018.7 hPa 0 mm - 0 W/m² -
1788393920 17.22° C 98% 1018.8 hPa 0 mm - 0 W/m² -
1788393614 17.22° C 98% 1018.9 hPa 0 mm - 0 W/m² -
1788393308 17.78° C 98% 1018.9 hPa 0 mm - 0 W/m² -
1788393003 17.78° C 98% 1018.8 hPa 0 mm - 0 W/m² -
1788392698 17.22° C 98% 1019 hPa 0 mm - 0 W/m² -
1788392396 17.22° C 98% 1019 hPa 0 mm - 0 W/m² -
1788392095 17.78° C 98% 1019.2 hPa 0 mm - 0 W/m² -
1788391790 17.78° C 98% 1019.2 hPa 0 mm - 0 W/m² -
1788391479 17.78° C 97% 1019.3 hPa 0 mm - 0 W/m² -
1788391183 17.78° C 97% 1019.5 hPa 0 mm - 1 W/m² -
1788390874 17.78° C 97% 1019.6 hPa 0 mm - 2 W/m² -
1788390568 17.78° C 96% 1019.3 hPa 0 mm - 4 W/m² -
1788390267 17.78° C 96% 1019.6 hPa 0 mm - 6 W/m² -
1788389962 17.78° C 96% 1019.6 hPa 0 mm - 9 W/m² -
1788389657 17.78° C 95% 1019.5 hPa 0 mm - 13 W/m² -
1788389356 17.78° C 95% 1019.6 hPa 0 mm - 17 W/m² -
1788389056 18.33° C 95% 1019.5 hPa 0 mm - 21 W/m² -
1788388752 18.33° C 94% 1019.3 hPa 0 mm - 23 W/m² -
1788388447 18.33° C 94% 1019.5 hPa 0 mm - 28 W/m² -
1788388142 18.33° C 94% 1019.8 hPa 0 mm - 36 W/m² -
1788387840 18.33° C 94% 1019.8 hPa 0 mm - 38 W/m² -

* Rain latest hour (hover to see other rain measurements)
** Current wind speed in m/s (hover to see current wind gust speed)